Valladolid Airport, Spain

8:23 AM CEST on September 29, 2016 (GMT +0200)
Villanubla

Weather History for LEVD - June, 2013

Change the Weather History Date:

Thursday, June 27, 2013

  Actual Average Record
Temperature  
Mean Temperature 62 °F -  
Max Temperature 75 °F - - ()
Min Temperature 48 °F - - ()
Degree Days  
Heating Degree Days 4    
Growing Degree Days 12 (Base 50)    
Moisture  
Dew Point 46 °F    
Average Humidity 56    
Maximum Humidity 87    
Minimum Humidity 29    
Precipitation  
Precipitation 0.00 in - - ()
Sea Level Pressure  
Sea Level Pressure 30.25 in    
Wind  
Wind Speed 15 mph ()    
Max Wind Speed 22 mph    
Max Gust Speed 29 mph    
T = Trace of Precipitation, MM = Missing Value Source: Averaged Metar Reports

Daily Weather History Graph

Daily Weather History Graph

Search for Another Location

Airport or City:

Trip Planner

Search our weather history database for the weather conditions in past years. The results will help you decide how hot, cold, wet, or windy it might be!

Date:

Astronomy

Jun. 27, 2013 Rise Set
Actual Time 6:46 AM CEST 9:58 PM CEST
Civil Twilight 6:12 AM CEST 10:32 PM CEST
Nautical Twilight 5:28 AM CEST 11:16 PM CEST
Astronomical Twilight 4:36 AM CEST 12:08 AM CEST
Moon 12:08 AM CEST (6/27) 11:35 AM CEST (6/27)
Length of Visible Light 16h 19m
Length of Day
15h 11m
Waning Gibbous, 79% of the Moon is Illuminated
Jun 27
Waning Gibbous
Jun 30
Last Quarter
Jul 8
New
Jul 16
First Quarter
Jul 22
Full

Hourly Weather History & Observations

Time (CEST) Temp. Dew Point Humidity Pressure Visibility Wind Dir Wind Speed Gust Speed Precip Events Conditions
12:00 AM 55.4 °F 48.2 °F 77% 30.24 in - NE 15.0 mph - N/A   Clear
12:30 AM 53.6 °F 48.2 °F 82% 30.24 in - NE 16.1 mph - N/A   Clear
1:00 AM 51.8 °F 46.4 °F 82% 30.24 in - ENE 9.2 mph - N/A   Clear
1:30 AM 51.8 °F 46.4 °F 82% 30.24 in - NE 13.8 mph - N/A   Clear
2:00 AM 50.0 °F 46.4 °F 87% 30.24 in - NE 12.7 mph - N/A   Clear
7:00 AM 48.2 °F 44.6 °F 87% 30.24 in - ENE 17.3 mph - N/A   Clear
7:30 AM 48.2 °F 44.6 °F 87% 30.24 in - NE 20.7 mph - N/A   Clear
8:00 AM 50.0 °F 46.4 °F 87% 30.24 in - NE 19.6 mph - N/A   Clear
8:30 AM 51.8 °F 46.4 °F 82% 30.24 in - ENE 18.4 mph - N/A   Clear
9:00 AM 51.8 °F 46.4 °F 82% 30.24 in - ENE 21.9 mph - N/A   Clear
9:30 AM 53.6 °F 46.4 °F 77% 30.24 in - ENE 19.6 mph - N/A   Clear
10:00 AM 57.2 °F 48.2 °F 72% 30.27 in - NE 20.7 mph - N/A   Clear
10:30 AM 59.0 °F 46.4 °F 63% 30.27 in - ENE 18.4 mph - N/A   Clear
11:00 AM 60.8 °F 46.4 °F 59% 30.27 in - ENE 17.3 mph - N/A   Clear
11:30 AM 64.4 °F 46.4 °F 52% 30.27 in - ENE 16.1 mph - N/A   Clear
12:00 PM 66.2 °F 48.2 °F 52% 30.27 in - ENE 16.1 mph - N/A   Clear
12:30 PM 66.2 °F 46.4 °F 49% 30.27 in - ENE 15.0 mph - N/A   Clear
1:00 PM 68.0 °F 48.2 °F 49% 30.27 in - ENE 15.0 mph - N/A   Clear
1:30 PM 69.8 °F 48.2 °F 46% 30.27 in - ENE 15.0 mph - N/A   Clear
2:00 PM 71.6 °F 48.2 °F 43% 30.27 in - NE 16.1 mph - N/A   Clear
2:30 PM 71.6 °F 48.2 °F 43% 30.27 in - NE 18.4 mph - N/A   Clear
3:00 PM 71.6 °F 44.6 °F 38% 30.24 in - NE 16.1 mph - N/A   Clear
3:30 PM 73.4 °F 48.2 °F 41% 30.24 in - ENE 16.1 mph - N/A   Clear
4:00 PM 75.2 °F 42.8 °F 31% 30.24 in - NE 17.3 mph - N/A   Clear
4:30 PM 75.2 °F 42.8 °F 31% 30.24 in - ENE 16.1 mph - N/A   Clear
5:00 PM 75.2 °F 42.8 °F 31% 30.24 in - ENE 16.1 mph - N/A   Clear
5:30 PM 75.2 °F 41.0 °F 29% 30.24 in - ENE 17.3 mph - N/A   Clear
6:00 PM 73.4 °F 41.0 °F 31% 30.24 in - ENE 16.1 mph - N/A   Clear
6:30 PM 73.4 °F 42.8 °F 33% 30.24 in - ENE 17.3 mph 28.8 mph N/A   Clear
7:00 PM 71.6 °F 44.6 °F 38% 30.24 in - ENE 16.1 mph - N/A   Clear
7:30 PM 69.8 °F 44.6 °F 40% 30.24 in - ENE 17.3 mph - N/A   Clear
8:00 PM 69.8 °F 44.6 °F 40% 30.24 in - ENE 16.1 mph - N/A   Clear
8:30 PM 66.2 °F 44.6 °F 46% 30.24 in - NE 13.8 mph - N/A   Clear
9:00 PM 64.4 °F 44.6 °F 49% 30.24 in - NE 13.8 mph - N/A   Clear
9:30 PM 62.6 °F 44.6 °F 52% 30.24 in - NE 11.5 mph - N/A   Clear